USA 170 1 27875U 03040A 21061.88853080 -.00000279 00000-0 00000-0 0 9995 2 27875 6.4073 62.8913 0001886 294.3818 81.0632 1.00273513 13598 DELTA 4 R/B 1 27876U 03040B 21061.92585828 .00007403 00000-0 57465-3 0 9998 2 27876 25.7376 270.0870 5445770 222.3899 79.4229 4.94519556 30973 IABS R/B 1 27877U 03040C 21061.87154289 -.00000258 00000-0 00000+0 0 9997 2 27877 11.8936 25.9546 0012626 297.9686 61.9362 1.00747313 6465